Weather History for Prague, Czech Republic

Change the Weather History Date:

Thursday, March 20, 2014

  Actual Average Record
Temperature  
Mean Temperature 54 °F -  
Max Temperature 66 °F 53 °F 66 °F (2014)
Min Temperature 43 °F 34 °F 23 °F (2005)
Degree Days  
Heating Degree Days 10    
Growing Degree Days 4 (Base 50)    
Moisture  
Dew Point 35 °F    
Average Humidity 49    
Maximum Humidity 76    
Minimum Humidity 16    
Precipitation  
Precipitation 0.00 in 0.05 in - ()
Sea Level Pressure  
Sea Level Pressure 30.12 in    
Wind  
Wind Speed 13 mph ()    
Max Wind Speed 22 mph    
Max Gust Speed -    
Averages and records for this station are not official NWS values.
T = Trace of Precipitation, MM = Missing Value Source: Averaged Metar Reports

Daily Weather History Graph

Daily Weather History Graph

Search for Another Location

Airport:

Trip Planner

Search our weather history database for the weather conditions in past years. The results will help you decide how hot, cold, wet, or windy it might be!

Date:

Astronomy

Mar. 20, 2014 Rise Set
Actual Time 6:06 AM CET 6:15 PM CET
Civil Twilight 5:34 AM CET 6:47 PM CET
Nautical Twilight 4:55 AM CET 7:26 PM CET
Astronomical Twilight 4:16 AM CET 8:05 PM CET
Moon 10:42 PM CET (3/20) 7:38 AM CET (3/20)
Length of Visible Light 13h 13m
Length of Day
12h 09m
Waning Gibbous, 86% of the Moon is Illuminated
Mar 20
Waning Gibbous
Mar 24
Last Quarter
Mar 30
New
Apr 7
First Quarter
Apr 15
Full

Hourly Weather History & Observations

Time (CET) Temp. Windchill Dew Point Humidity Pressure Visibility Wind Dir Wind Speed Gust Speed Precip Events Conditions
12:00 AM 47 °F - 39 °F 64% 30.21 in 22 mi WSW 20.1 mph - -   Scattered Clouds
12:00 AM 48.2 °F - 39.2 °F 71% 30.18 in - SW 21.9 mph - N/A   Clear
12:30 AM 46.4 °F 39.0 °F 37.4 °F 71% 30.18 in - SW 19.6 mph - N/A   Clear
1:00 AM 46 °F - 38 °F 65% 30.22 in 22 mi SW 15.7 mph - -   Scattered Clouds
1:00 AM 46.4 °F 39.2 °F 37.4 °F 71% 30.18 in - SW 18.4 mph - N/A   Clear
1:30 AM 46.4 °F 39.5 °F 37.4 °F 71% 30.18 in - SW 17.3 mph - N/A   Clear
2:00 AM 46 °F - 38 °F 65% 30.21 in 22 mi SW 17.9 mph - -   Scattered Clouds
2:00 AM 46.4 °F 39.0 °F 37.4 °F 71% 30.18 in - SW 19.6 mph - N/A   Clear
2:30 AM 44.6 °F 36.9 °F 37.4 °F 76% 30.15 in - SW 18.4 mph - N/A   Clear
3:00 AM 45 °F - 38 °F 70% 30.20 in 25 mi SW 17.9 mph - -   Scattered Clouds
3:00 AM 44.6 °F 37.4 °F 37.4 °F 76% 30.15 in - SW 16.1 mph - N/A   Clear
3:30 AM 46.4 °F 39.0 °F 37.4 °F 71% 30.15 in - SW 19.6 mph - N/A   Clear
4:00 AM 46 °F - 37 °F 63% 30.20 in 25 mi WSW 17.9 mph - -   Scattered Clouds
4:00 AM 46.4 °F 38.7 °F 37.4 °F 71% 30.15 in - SW 20.7 mph - N/A   Clear
4:30 AM 46.4 °F 39.5 °F 37.4 °F 71% 30.15 in - WSW 17.3 mph - N/A   Clear
5:00 AM 45 °F - 37 °F 66% 30.19 in 25 mi WSW 17.9 mph - -   Scattered Clouds
5:00 AM 44.6 °F 37.4 °F 37.4 °F 76% 30.15 in - SW 16.1 mph - N/A   Clear
5:30 AM 44.6 °F 36.9 °F 37.4 °F 76% 30.15 in - SW 18.4 mph - N/A   Clear
6:00 AM 44.6 °F 36.6 °F 37.4 °F 76% 30.15 in - SW 19.6 mph - N/A   Clear
6:30 AM 44.6 °F 38.1 °F 37.4 °F 76% 30.15 in - SW 13.8 mph - N/A   Clear
7:00 AM 44 °F - 36 °F 66% 30.21 in 25 mi SW 17.9 mph - -   Clear
7:00 AM 44.6 °F 38.4 °F 37.4 °F 76% 30.15 in - SW 12.7 mph - N/A   Clear
7:30 AM 46.4 °F 40.4 °F 37.4 °F 71% 30.18 in - SSW 13.8 mph - N/A   Clear
8:00 AM 48 °F - 38 °F 60% 30.22 in 25 mi WSW 13.4 mph - -   Clear
8:00 AM 48.2 °F - 39.2 °F 71% 30.18 in - SW 15.0 mph - N/A   Clear
8:30 AM 48.2 °F - 37.4 °F 66% 30.18 in - WSW 13.8 mph - N/A   Clear
9:00 AM 52 °F - 38 °F 49% 30.21 in 25 mi WSW 13.4 mph - -   Clear
9:00 AM 51.8 °F - 39.2 °F 62% 30.18 in - West 12.7 mph - N/A   Clear
9:30 AM 53.6 °F - 39.2 °F 58% 30.18 in - West 11.5 mph - N/A   Clear
10:00 AM 56 °F - 38 °F 39% 30.20 in 31 mi WSW 11.2 mph - -   Clear
10:00 AM 57.2 °F - 39.2 °F 51% 30.18 in - WSW 11.5 mph - N/A   Clear
10:30 AM 57.2 °F - 37.4 °F 48% 30.18 in - SW 11.5 mph - N/A   Clear
11:00 AM 59 °F - 36 °F 30% 30.20 in 37 mi WSW 11.2 mph - -   Clear
11:00 AM 59.0 °F - 35.6 °F 42% 30.18 in - SW 13.8 mph - N/A   Clear
11:30 AM 60.8 °F - 35.6 °F 39% 30.18 in - SW 12.7 mph - N/A   Clear
12:00 PM 62 °F - 35 °F 24% 30.18 in 37 mi WSW 8.9 mph - -   Clear
12:00 PM 62.6 °F - 35.6 °F 37% 30.18 in - WSW 10.4 mph - N/A   Clear
12:30 PM 62.6 °F - 33.8 °F 34% 30.18 in - SW 8.1 mph - N/A   Clear
1:00 PM 64 °F - 31 °F 18% 30.15 in 44 mi SW 8.9 mph - -   Clear
1:00 PM 64.4 °F - 30.2 °F 28% 30.15 in - SSW 8.1 mph - N/A   Clear
1:30 PM 64.4 °F - 32.0 °F 30% 30.15 in - SSW 6.9 mph - N/A   Clear
2:00 PM 65 °F - 31 °F 18% 30.12 in 44 mi SSW 6.7 mph - -   Clear
2:00 PM 66.2 °F - 30.2 °F 26% 30.12 in - South 6.9 mph - N/A   Clear
2:30 PM 66.2 °F - 32.0 °F 28% 30.12 in - SSE 5.8 mph - N/A   Clear
3:00 PM 67 °F - 31 °F 16% 30.09 in 44 mi SSE 8.9 mph - -   Clear
3:00 PM 66.2 °F - 32.0 °F 28% 30.09 in - SSE 8.1 mph - N/A   Clear
3:30 PM 66.2 °F - 35.6 °F 32% 30.09 in - SSE 10.4 mph - N/A   Clear
4:00 PM 66 °F - 32 °F 17% 30.06 in 47 mi SSE 6.7 mph - -   Clear
4:00 PM 66.2 °F - 32.0 °F 28% 30.06 in - SSE 9.2 mph - N/A   Clear
4:30 PM 64.4 °F - 33.8 °F 32% 30.06 in - SSE 10.4 mph - N/A   Clear
5:00 PM 64 °F - 31 °F 18% 30.05 in 47 mi SSE 8.9 mph - -   Clear
5:00 PM 64.4 °F - 32.0 °F 30% 30.06 in - SSE 9.2 mph - N/A   Clear
5:30 PM 62.6 °F - 32.0 °F 32% 30.06 in - South 8.1 mph - N/A   Clear
6:00 PM 60 °F - 33 °F 24% 30.05 in 47 mi SSE 6.7 mph - -   Clear
6:00 PM 60.8 °F - 32.0 °F 34% 30.04 in - SE 5.8 mph - N/A   Clear
6:30 PM 59.0 °F - 30.2 °F 34% 30.04 in - SE 3.5 mph - N/A   Clear
7:00 PM 57 °F - 30 °F 23% 30.05 in 47 mi SE 8.9 mph - -   Clear
7:00 PM 57.2 °F - 30.2 °F 36% 30.04 in - SE 6.9 mph - N/A   Clear
7:30 PM 53.6 °F - 32.0 °F 44% 30.04 in - ESE 5.8 mph - N/A   Clear
8:00 PM 51 °F - 33 °F 38% 30.05 in 47 mi SE 11.2 mph - -   Scattered Clouds
8:00 PM 50.0 °F - 33.8 °F 54% 30.04 in - SE 8.1 mph - N/A   Clear
8:30 PM 55.4 °F - 33.8 °F 44% 30.04 in - SE 11.5 mph - N/A   Clear
9:00 PM 56 °F - 33 °F 30% 30.01 in 47 mi SSE 6.7 mph - -   Clear
9:00 PM 55.4 °F - 33.8 °F 44% 30.01 in - SSE 8.1 mph - N/A   Clear
9:30 PM 51.8 °F - 33.8 °F 50% 30.01 in - SSE 10.4 mph - N/A   Clear
10:00 PM 52 °F - 34 °F 38% 30.01 in 47 mi South 6.7 mph - -   Clear
10:00 PM 51.8 °F - 33.8 °F 50% 29.98 in - South 11.5 mph - N/A   Clear
10:30 PM 50.0 °F - 33.8 °F 54% 29.98 in - SSE 9.2 mph - N/A   Clear
11:00 PM 53 °F - 35 °F 38% 29.99 in 47 mi South 6.7 mph - -   Clear
11:00 PM 51.8 °F - 35.6 °F 54% 29.98 in - SSE 8.1 mph - N/A   Clear
11:30 PM 53.6 °F - 35.6 °F 51% 29.95 in - South 8.1 mph - N/A   Clear